#timestamp,LO_Frequency,Hit,StdDev 
1698598815.5,286047001.8,P
1698598835.4,286047002.0,Y
1698598855.2,286047000.9,P
1698598875.0,286047001.1,N
1698598875.9,286047001.1,N
1698598895.8,286047001.2,N
1698598915.6,286047000.8,N
1698598935.4,286047001.1,N
1698598955.3,286047000.5,N
1698598975.1,286047000.9,N
1698598995.9,286047000.6,N
1698599015.7,286047000.4,N
1698599035.5,286046999.7,N
1698599055.4,286046999.7,N
1698599075.2,286047002.7,Y
1698599095.0,286046999.9,P
1698599096.0,286046999.9,N
1698599115.8,286047000.2,N
1698599135.6,286047000.3,N
1698599155.5,286047002.8,Y
1698599175.3,286047002.6,P
1698599195.1,286046999.7,N
1698599215.9,286046999.9,N
1698599235.7,286047002.6,N
1698599255.5,286047002.3,N
1698599275.4,286047001.5,N
1698599295.2,286047001.8,N
1698599315.1,286047002.2,N
1698599316.0,286047002.2,N
1698599335.8,286047001.6,N
1698599355.6,286047001.6,N
1698599375.5,286047001.7,N
1698599395.3,286047001.3,N
1698599415.2,286047003.8,Y
1698599435.9,286047002.5,P
1698599455.7,286047002.0,P
1698599475.6,286047002.5,P
1698599495.4,286047002.6,Y
1698599515.2,286047001.0,P
1698599535.1,286047000.7,N
1698599536.0,286047000.7,N
1698599555.8,286047000.1,N
1698599575.7,286047000.0,N
1698599595.5,286047000.9,N
1698599615.3,286047000.3,N
1698599635.2,286047001.0,N
1698599655.0,286047000.9,N
1698599655.9,286047000.9,N
1698599675.7,286047000.0,N
1698599695.6,286047000.1,N
1698599715.4,286047000.2,N
1698599735.3,286046999.9,N
1698599755.1,286047000.0,N
1698599756.0,286047000.0,N
1698599775.8,286047000.6,N
1698599795.7,286046999.9,N
1698599815.5,286047000.0,N
1698599835.3,286047002.4,Y
1698599855.2,286047002.2,P
1698599875.0,286047000.1,N
1698599875.9,286047000.1,N
1698599895.8,286047000.3,N
1698599915.6,286047000.3,N
1698599935.4,286047000.0,N
1698599955.3,286047000.1,N
1698599975.1,286047002.1,Y
1698599995.9,286047000.2,P
1698600015.7,286046999.7,N
1698600035.5,286047002.7,P
1698600055.4,286047000.1,N
1698600075.2,286046999.9,N
1698600095.0,286047000.3,N
1698600095.9,286047000.3,N
1698600115.8,286046999.8,N
1698600135.6,286047000.2,N
1698600155.5,286047002.3,N
1698600175.3,286047002.1,N
1698600195.1,286047002.7,N
1698600215.9,286047002.8,N
1698600235.7,286047002.2,N
1698600255.5,286047001.3,N
1698600275.5,286047001.5,N
1698600295.3,286047001.8,N
1698600315.1,286047003.7,Y
1698600335.9,286047004.0,P
1698600355.7,286047004.1,N
1698600375.5,286047003.4,N
1698600395.4,286047003.7,Y
1698600415.2,286047000.0,P
1698600435.1,286047000.1,N
1698600436.0,286047000.1,N
1698600455.8,286047002.6,N
1698600475.6,286047002.5,N
1698600495.5,286047002.2,N
1698600515.3,286047001.8,N
1698600535.1,286047001.6,N
1698600555.9,286047001.5,N
1698600575.7,286047004.0,Y
1698600595.6,286047000.2,P
1698600615.4,286047002.2,P
1698600635.2,286047002.2,N
1698600655.1,286047001.4,N
1698600656.0,286047001.4,N
1698600675.8,286047001.3,N
1698600695.7,286047004.4,Y
1698600715.5,286047002.0,P
1698600735.3,286047001.7,P
1698600755.2,286047001.3,P
1698600775.0,286047004.2,Y
1698600775.9,286047004.2,P
1698600795.7,286047002.3,N
1698600815.6,286047002.4,N
1698600835.4,286047001.9,N
1698600855.3,286047004.4,Y
1698600875.1,286047000.5,P
1698600895.8,286046999.8,N
1698600915.7,286047002.7,N
1698600935.5,286047002.1,N
1698600985.4,286047004.3,E
1698600995.3,286047000.0,N
1698601015.1,286047001.2,P
1698601035.9,286046998.5,N
1698601055.7,286046998.2,N
1698601075.6,286046998.7,N
1698601095.4,286046998.4,N
1698601115.2,286046998.7,N
1698601135.1,286046998.4,N
1698601136.0,286046998.4,N
1698601155.8,286046998.2,N
1698601175.6,286047000.4,N
1698601195.5,286046999.9,N
1698601215.3,286047000.0,N
1698601235.2,286047000.3,N
1698601255.9,286047002.1,N
1698601275.7,286047002.0,N
1698601295.6,286047003.9,N
1698601315.4,286047004.0,N
1698601335.2,286047003.7,N
1698601355.1,286047003.6,N
1698601356.0,286047003.6,N
1698601375.8,286047003.5,N
1698601395.7,286047002.9,N
1698601415.5,286047002.9,N
1698601435.3,286047006.0,N
1698601455.2,286047005.5,N
1698601475.0,286047005.7,N
1698601475.9,286047005.7,N
1698601495.7,286047005.0,N
1698601515.6,286047007.6,N
1698601535.4,286047004.5,N
1698601555.3,286047006.8,N
1698601575.1,286047007.0,N
1698601595.8,286047006.8,N
1698601615.7,286047008.8,N
1698601635.5,286047006.1,N
1698601655.4,286047008.7,N
1698601675.2,286047008.6,N
1698601695.0,286047008.9,Y
1698601695.9,286047008.9,P
1698601715.8,286047005.9,N
1698601735.6,286047003.0,N
1698601755.4,286047005.7,N
1698601775.3,286047004.5,N
1698601795.1,286047004.9,N
1698601815.9,286047007.5,Y
1698601835.7,286047002.7,P
1698601855.5,286047001.5,N
1698601875.4,286047002.6,N
1698601895.2,286047002.1,N
1698601915.1,286047001.6,N
1698601916.0,286047001.6,N
1698601935.8,286047001.6,N
1698601955.6,286047001.8,N
1698601975.5,286047004.2,Y
1698601995.3,286047002.8,P
1698602015.2,286046999.7,N
1698602035.9,286047001.5,N
1698602055.7,286047001.8,N
1698602075.6,286047004.4,Y
1698602095.4,286047002.1,P
1698602115.2,286047002.0,P
1698602135.1,286047001.3,P
1698602136.0,286047001.3,Y
1698602155.8,286047002.5,P
1698602175.7,286047001.6,P
1698602195.5,286047001.7,P
1698602215.3,286047003.9,Y
1698602235.2,286047002.8,P
1698602255.0,286047003.9,P
1698602255.9,286047003.9,P
1698602275.8,286047004.1,Y
1698602295.6,286046999.8,P
1698602315.4,286047000.5,N
1698602335.3,286047000.1,N
1698602355.1,286047002.7,N
1698602375.9,286047002.5,N
1698602395.7,286047001.5,N
